M I D A S
Marine Information and Data Acquisition System
Tripno 1147 of the Zeeleeuw from 2006-08-17 06:46:29 to 2006-08-17 13:01:26
Back to CruiseResearch ActivitiesStationsMapUnderway DataData graphs

EquipmentUnitsComment
TimeDGPSUTC
LatitudeDGPSDM.mWGS84
LongitudeDGPSDM.mWGS84
TemperatureSBE03/SBE38deg celciusITS90
ConductivitySBE21S/mITS90
SalinitySBE21 Practical Salinity Units
ChlorophylAChelsea fluorimeterg/lCalibrated in Aceton
Missing or incorrect values are displayed as -999
Sea surface data collected by the RV Zeeleeuw from 2006-08-17 06:44:46 to 2006-08-17 13:12:28
Time Latitude Longitude Temperature Conductivity Salinity ChlorophylA
2006-08-17 06:45:52 51°13.613 2°56.027 20.4583 0.007991 0.043988 0.027777
2006-08-17 06:46:51 51°13.641 2°55.928 20.4689 0.007991 0.043989 0.027777
2006-08-17 06:47:52 51°13.687 2°55.827 20.4761 0.007991 0.043991 -0.039642
2006-08-17 06:48:51 51°13.717 2°55.734 20.4807 0.007991 0.043992 -0.005933
2006-08-17 06:49:50 51°13.732 2°55.724 20.4758 0.007991 0.043994 -0.005933
2006-08-17 06:50:51 51°13.72 2°55.714 20.5434 0.007991 0.043995 -0.039642
2006-08-17 06:51:50 51°13.748 2°55.699 20.5285 0.007991 0.043997 -0.005933
2006-08-17 06:52:51 51°13.806 2°55.655 20.495 0.007991 0.043998 -0.039642
2006-08-17 06:53:51 51°13.875 2°55.601 20.499 0.007991 0.043998 -0.005933
2006-08-17 06:54:51 51°13.951 2°55.543 20.5025 0.007991 0.044 -0.005933
2006-08-17 06:55:50 51°14.028 2°55.488 20.5148 0.007991 0.044 0.027777
2006-08-17 06:56:51 51°14.123 2°55.414 20.4852 0.007991 0.044001 0.027777
2006-08-17 06:57:51 51°14.226 2°55.309 20.496 0.007991 0.044002 -0.005933
2006-08-17 06:58:51 51°14.323 2°55.16 20.5361 0.007991 0.044003 -0.039642
2006-08-17 06:59:51 51°14.419 2°54.959 20.4522 0.007991 0.044003 -0.005933
2006-08-17 07:00:51 51°14.558 2°54.786 20.4897 0.007991 0.044005 -0.039642
2006-08-17 07:01:51 51°14.72 2°54.645 20.5333 0.007991 0.044007 -0.005933
2006-08-17 07:02:50 51°14.862 2°54.455 20.4654 0.007991 0.044008 -0.005933
2006-08-17 07:03:51 51°14.989 2°54.214 20.4745 0.007991 0.044011 -0.005933
2006-08-17 07:04:51 51°15.087 2°53.94 20.4793 0.007991 0.044013 -0.005933
2006-08-17 07:05:51 51°15.195 2°53.672 20.4984 0.007991 0.044015 0.027777
2006-08-17 07:06:50 51°15.309 2°53.419 20.5399 0.007991 0.044017 -0.039642
2006-08-17 07:07:51 51°15.398 2°53.138 20.5264 0.007991 0.04402 -0.005933
2006-08-17 07:08:51 51°15.479 2°52.857 20.5349 0.007991 0.044022 -0.005933
2006-08-17 07:09:51 51°15.562 2°52.579 20.5599 0.007991 0.044025 -0.005933
2006-08-17 07:10:51 51°15.625 2°52.29 20.3584 0.007991 0.044022 -0.005933
2006-08-17 07:11:51 51°15.706 2°52.008 20.4229 0.007991 0.044026 -0.005933
2006-08-17 07:12:51 51°15.775 2°51.726 20.4413 0.007991 0.04403 0.027777
2006-08-17 07:13:51 51°15.849 2°51.446 20.4719 0.007991 0.044035 -0.005933
2006-08-17 07:14:51 51°15.907 2°51.156 20.5262 0.007991 0.04404 -0.039642
2006-08-17 07:15:51 51°15.961 2°50.865 20.5737 0.007991 0.044043 0.027777
2006-08-17 07:16:51 51°16.013 2°50.574 20.6169 0.007991 0.044046 -0.005933
2006-08-17 07:17:51 51°16.054 2°50.279 20.6458 0.007991 0.044049 -0.005933
2006-08-17 07:18:51 51°16.104 2°49.985 20.7242 0.007991 0.044052 0.027777
2006-08-17 07:19:51 51°16.153 2°49.692 20.7196 0.007991 0.044056 0.027777
2006-08-17 07:20:51 51°16.193 2°49.397 20.7928 0.007991 0.044061 -0.005933
2006-08-17 07:21:51 51°16.249 2°49.108 20.8132 0.007991 0.044065 0.027777
2006-08-17 07:22:51 51°16.289 2°48.822 20.8264 0.007991 0.04407 0.027777
2006-08-17 07:23:51 51°16.34 2°48.538 20.9081 0.007991 0.044074 -0.005933
2006-08-17 07:24:51 51°16.385 2°48.253 20.92 0.007991 0.044078 0.027777
2006-08-17 07:25:51 51°16.438 2°47.969 20.9741 0.007991 0.044083 -0.005933
2006-08-17 07:26:51 51°16.494 2°47.684 21.0212 0.007991 0.044087 0.027777
2006-08-17 07:27:51 51°16.545 2°47.397 21.0306 0.007991 0.044091 -0.005933
2006-08-17 07:28:51 51°16.608 2°47.11 21.0933 0.007991 0.044096 0.027777
2006-08-17 07:29:51 51°16.67 2°46.821 21.1149 0.007991 0.044097 -0.005933
2006-08-17 07:30:50 51°16.73 2°46.537 21.1742 0.007991 0.044108 -0.005933
2006-08-17 07:31:51 51°16.818 2°46.254 21.2079 0.007991 0.04411 -0.005933
2006-08-17 07:32:51 51°16.906 2°45.972 21.2781 0.007991 0.044114 -0.005933
2006-08-17 07:33:51 51°16.996 2°45.69 21.2997 0.007991 0.044118 0.027777
2006-08-17 07:34:51 51°17.09 2°45.41 21.348 0.007991 0.044124 -0.005933
2006-08-17 07:35:51 51°17.183 2°45.132 21.4246 0.007991 0.044129 -0.005933
2006-08-17 07:36:51 51°17.273 2°44.857 21.3549 0.007991 0.044135 -0.005933
2006-08-17 07:37:51 51°17.364 2°44.583 21.4131 0.007991 0.044138 -0.005933
2006-08-17 07:38:51 51°17.454 2°44.305 21.5616 0.007991 0.044143 -0.005933
2006-08-17 07:39:51 51°17.543 2°44.025 21.5766 0.007991 0.044147 0.027777
2006-08-17 07:40:51 51°17.631 2°43.747 21.5038 0.007991 0.044151 -0.005933
2006-08-17 07:41:50 51°17.719 2°43.476 21.5746 0.007991 0.044155 -0.039642
2006-08-17 07:42:51 51°17.821 2°43.206 21.7216 0.007991 0.044158 0.027777
2006-08-17 07:43:50 51°17.922 2°42.94 21.6391 0.007991 0.044161 0.027777
2006-08-17 07:44:51 51°18.023 2°42.657 21.6921 0.007991 0.044164 0.027777
2006-08-17 07:45:51 51°18.121 2°42.38 21.8259 0.007991 0.044166 -0.005933
2006-08-17 07:46:51 51°18.216 2°42.108 21.8759 0.007991 0.044168 -0.005933
2006-08-17 07:47:51 51°18.318 2°41.84 21.8655 0.007991 0.04417 0.027777
2006-08-17 07:48:51 51°18.414 2°41.567 21.8798 0.007991 0.044173 -0.005933
2006-08-17 07:49:50 51°18.513 2°41.305 22.0047 0.007991 0.044175 0.027777
2006-08-17 07:50:51 51°18.622 2°41.042 22.0529 0.007991 0.044177 -0.005933
2006-08-17 07:51:51 51°18.759 2°40.814 22.0635 0.007991 0.04418 0.027777
2006-08-17 07:52:50 51°18.886 2°40.582 22.076 0.007991 0.044182 0.027777
2006-08-17 07:53:51 51°19.017 2°40.338 21.9536 0.007991 0.044184 -0.005933
2006-08-17 07:54:50 51°19.146 2°40.094 22.0348 0.007991 0.044187 -0.005933
2006-08-17 07:55:51 51°19.272 2°39.833 22.1938 0.007991 0.04419 0.027777
2006-08-17 07:56:51 51°19.406 2°39.583 22.1072 0.007991 0.044192 -0.005933
2006-08-17 07:57:49 51°19.532 2°39.336 22.3337 0.007991 0.044195 -0.005933
2006-08-17 07:58:51 51°19.636 2°39.049 22.0824 0.007991 0.044197 -0.005933
2006-08-17 07:59:51 51°19.745 2°38.778 22.3361 0.007991 0.044199 -0.005933
2006-08-17 08:00:51 51°19.821 2°38.488 22.2426 0.007991 0.044202 -0.005933
2006-08-17 08:01:51 51°19.892 2°38.194 22.3372 0.007991 0.044203 0.027777
2006-08-17 08:02:51 51°19.949 2°37.899 22.4718 0.007887 0.043718 0.027777
2006-08-17 08:03:51 51°20.014 2°37.623 22.5164 0.007991 0.044204 -0.005933
2006-08-17 08:04:51 51°20.053 2°37.408 22.6278 0.007887 0.043721 -0.005933
2006-08-17 08:05:51 51°20.067 2°37.293 22.6549 0.007991 0.044208 0.027777
2006-08-17 08:06:51 51°20.087 2°37.2 22.6696 0.007991 0.04421 -0.005933
2006-08-17 08:07:51 51°20.092 2°37.144 22.633 0.007991 0.044212 -0.005933
2006-08-17 08:08:51 51°20.106 2°37.154 22.6344 0.007991 0.044214 -0.005933
2006-08-17 08:09:51 51°20.123 2°37.173 22.6823 0.007991 0.044215 -0.005933
2006-08-17 08:10:50 51°20.133 2°37.184 22.7132 0.007887 0.043729 0.027777
2006-08-17 08:11:51 51°20.131 2°37.177 22.8311 0.007991 0.044217 -0.005933
2006-08-17 08:12:50 51°20.13 2°37.174 22.8241 0.007887 0.043731 -0.005933
2006-08-17 08:13:49 51°20.131 2°37.176 22.8994 0.007887 0.043731 -0.005933
2006-08-17 08:14:51 51°20.132 2°37.18 22.9251 0.007991 0.044218 -0.005933
2006-08-17 08:15:50 51°20.131 2°37.181 22.9289 0.007991 0.044219 0.027777
2006-08-17 08:16:50 51°20.13 2°37.18 22.9158 0.007887 0.043733 0.027777
2006-08-17 08:17:50 51°20.129 2°37.18 22.8117 0.007991 0.044221 -0.005933
2006-08-17 08:18:50 51°20.129 2°37.181 22.9222 0.007887 0.043736 -0.005933
2006-08-17 08:19:50 51°20.13 2°37.183 22.8693 0.007991 0.044223 -0.005933
2006-08-17 08:20:50 51°20.13 2°37.182 22.9359 0.007991 0.044223 -0.005933
2006-08-17 08:21:50 51°20.13 2°37.179 22.9586 0.007887 0.043737 -0.005933
2006-08-17 08:22:51 51°20.131 2°37.178 23.0952 0.007887 0.043739 0.027777
2006-08-17 08:23:50 51°20.131 2°37.179 23.0558 0.007991 0.044226 -0.005933
2006-08-17 08:24:51 51°20.131 2°37.179 23.0967 0.007991 0.044227 -0.005933
2006-08-17 08:25:51 51°20.132 2°37.179 23.131 0.007887 0.04374 0.027777
2006-08-17 08:26:51 51°20.132 2°37.178 23.1454 0.007991 0.044227 0.027777
2006-08-17 08:27:50 51°20.132 2°37.176 23.1679 0.007991 0.044228 0.027777
2006-08-17 08:28:50 51°20.132 2°37.175 23.2743 0.007991 0.044229 -0.005933
2006-08-17 08:29:50 51°20.132 2°37.175 23.3173 0.007887 0.043742 0.027777
2006-08-17 08:30:51 51°20.133 2°37.176 23.3208 0.007887 0.043742 -0.005933
2006-08-17 08:31:51 51°20.131 2°37.178 23.307 0.007887 0.043742 -0.005933
2006-08-17 08:32:51 51°20.13 2°37.18 23.0414 0.007991 0.04423 -0.005933
2006-08-17 08:33:51 51°20.129 2°37.18 23.2187 0.007991 0.04423 -0.005933
2006-08-17 08:34:51 51°20.129 2°37.181 23.2429 0.007991 0.04423 0.027777
2006-08-17 08:35:51 51°20.129 2°37.182 23.2512 0.007991 0.044231 0.027777
2006-08-17 08:36:51 51°20.129 2°37.181 23.4405 0.007991 0.044232 0.027777
2006-08-17 08:37:50 51°20.131 2°37.178 23.3196 0.007887 0.043745 0.027777
2006-08-17 08:38:51 51°20.133 2°37.175 23.5394 0.007991 0.044234 -0.005933
2006-08-17 08:39:51 51°20.133 2°37.171 23.3857 0.007991 0.044234 -0.005933
2006-08-17 08:40:50 51°20.134 2°37.168 23.4312 0.007991 0.044235 -0.005933
2006-08-17 08:41:51 51°20.134 2°37.167 23.5998 0.007991 0.044236 0.027777
2006-08-17 08:42:51 51°20.135 2°37.167 23.5917 0.007991 0.044237 -0.005933
2006-08-17 08:43:51 51°20.135 2°37.166 23.6041 0.007991 0.044236 -0.005933
2006-08-17 08:44:51 51°20.136 2°37.165 23.5896 0.007887 0.043752 0.027777
2006-08-17 08:45:50 51°20.136 2°37.164 23.4192 0.007991 0.04424 0.027777
2006-08-17 08:46:50 51°20.135 2°37.163 23.5263 0.007991 0.044241 0.027777
2006-08-17 08:47:50 51°20.136 2°37.163 23.5153 0.007991 0.044242 0.027777
2006-08-17 08:48:51 51°20.136 2°37.162 23.5726 0.007887 0.043756 -0.005933
2006-08-17 08:49:50 51°20.136 2°37.161 23.7308 0.007991 0.044243 -0.005933
2006-08-17 08:50:51 51°20.134 2°37.161 23.6945 0.007991 0.044242 0.027777
2006-08-17 08:51:50 51°20.135 2°37.162 23.7014 0.007991 0.044241 -0.005933
2006-08-17 08:52:50 51°20.136 2°37.164 23.5144 0.007887 0.043753 0.027777
2006-08-17 08:53:50 51°20.136 2°37.164 23.6182 0.007991 0.04424 -0.005933
2006-08-17 08:54:50 51°20.136 2°37.163 23.7997 0.007887 0.043753 -0.005933
2006-08-17 08:55:51 51°20.135 2°37.161 23.8008 0.007991 0.04424 0.027777
2006-08-17 08:56:49 51°20.136 2°37.159 23.8061 0.007991 0.04424 0.027777
2006-08-17 08:57:50 51°20.136 2°37.158 23.8214 0.007991 0.044239 -0.005933
2006-08-17 08:58:50 51°20.137 2°37.158 23.6222 0.007991 0.044238 -0.005933
2006-08-17 08:59:51 51°20.137 2°37.159 23.7137 0.007991 0.044238 -0.005933
2006-08-17 09:00:51 51°20.137 2°37.159 23.7351 0.007991 0.044237 -0.005933
2006-08-17 09:01:51 51°20.137 2°37.158 23.7945 0.007991 0.044237 -0.005933
2006-08-17 09:02:50 51°20.137 2°37.158 23.7943 0.007991 0.044237 -0.005933
2006-08-17 09:03:49 51°20.138 2°37.157 23.9739 0.007991 0.044237 -0.005933
2006-08-17 09:04:50 51°20.138 2°37.154 23.9225 0.007991 0.044237 -0.005933
2006-08-17 09:05:49 51°20.137 2°37.152 23.9318 0.007991 0.044237 0.027777
2006-08-17 09:06:51 51°20.137 2°37.15 23.9725 0.007991 0.044237 0.027777
2006-08-17 09:07:51 51°20.139 2°37.149 23.9768 0.007991 0.044237 0.027777
2006-08-17 09:08:49 51°20.139 2°37.15 23.9233 0.007991 0.044237 -0.005933
2006-08-17 09:09:50 51°20.138 2°37.152 23.7415 0.007991 0.044237 -0.005933
2006-08-17 09:10:51 51°20.137 2°37.152 23.869 0.007991 0.044237 -0.005933
2006-08-17 09:11:50 51°20.138 2°37.152 23.9853 0.007991 0.044238 -0.005933
2006-08-17 09:12:49 51°20.139 2°37.152 23.9195 0.007991 0.044238 0.027777
2006-08-17 09:13:51 51°20.139 2°37.151 23.9312 0.007991 0.044238 0.027777
2006-08-17 09:14:51 51°20.138 2°37.151 23.968 0.007991 0.044239 -0.005933
2006-08-17 09:15:51 51°20.138 2°37.152 23.9863 0.007991 0.044238 -0.005933
2006-08-17 09:16:50 51°20.139 2°37.154 24.0035 0.007991 0.044239 -0.005933
2006-08-17 09:17:49 51°20.139 2°37.154 24.0412 0.007991 0.044239 -0.005933
2006-08-17 09:18:51 51°20.138 2°37.155 24.0056 0.007991 0.044239 -0.005933
2006-08-17 09:19:50 51°20.137 2°37.156 24.0453 0.007991 0.04424 0.027777
2006-08-17 09:20:51 51°20.137 2°37.156 24.1753 0.007887 0.043753 0.061486
2006-08-17 09:21:50 51°20.138 2°37.155 24.1852 0.007991 0.044241 -0.005933
2006-08-17 09:22:51 51°20.138 2°37.152 24.199 0.007991 0.044241 0.027777
2006-08-17 09:23:50 51°20.137 2°37.149 24.1835 0.007991 0.04424 -0.005933
2006-08-17 09:24:49 51°20.136 2°37.146 24.0608 0.007991 0.044239 0.027777
2006-08-17 09:25:51 51°20.136 2°37.145 24.107 0.007991 0.044239 0.027777
2006-08-17 09:26:50 51°20.136 2°37.147 24.1679 0.007991 0.044239 0.027777
2006-08-17 09:27:49 51°20.137 2°37.149 24.1545 0.007991 0.044238 -0.005933
2006-08-17 09:28:51 51°20.137 2°37.153 24.2196 0.007991 0.044238 -0.039642
2006-08-17 09:29:50 51°20.137 2°37.154 24.1988 0.007991 0.044237 -0.005933
2006-08-17 09:30:49 51°20.137 2°37.153 24.2222 0.007991 0.044237 -0.005933
2006-08-17 09:31:50 51°20.138 2°37.15 24.241 0.007991 0.044236 -0.005933
2006-08-17 09:32:50 51°20.137 2°37.146 24.3104 0.007991 0.044237 0.027777
2006-08-17 09:33:51 51°20.136 2°37.143 24.323 0.007991 0.044237 -0.005933
2006-08-17 09:34:51 51°20.136 2°37.143 24.3433 0.007991 0.044237 -0.005933
2006-08-17 09:35:50 51°20.137 2°37.147 24.3425 0.007887 0.04375 -0.005933
2006-08-17 09:36:50 51°20.137 2°37.152 24.3455 0.007991 0.044237 0.027777
2006-08-17 09:37:50 51°20.135 2°37.154 24.1759 0.007991 0.044238 -0.005933
2006-08-17 09:38:50 51°20.134 2°37.153 24.2716 0.007991 0.044239 0.027777
2006-08-17 09:39:50 51°20.136 2°37.152 24.3011 0.007991 0.04424 -0.005933
2006-08-17 09:40:51 51°20.138 2°37.15 24.3096 0.007991 0.044241 0.027777
2006-08-17 09:41:50 51°20.136 2°37.146 24.409 0.007991 0.044242 0.027777
2006-08-17 09:42:51 51°20.134 2°37.142 24.3368 0.007991 0.044243 -0.005933
2006-08-17 09:43:50 51°20.135 2°37.139 24.3393 0.007991 0.044243 -0.005933
2006-08-17 09:44:51 51°20.136 2°37.14 24.3621 0.007991 0.044243 -0.039642
2006-08-17 09:45:51 51°20.137 2°37.143 24.3667 0.007991 0.044243 0.027777
2006-08-17 09:46:49 51°20.137 2°37.146 24.3915 0.007991 0.044243 -0.039642
2006-08-17 09:47:50 51°20.137 2°37.15 24.4956 0.007991 0.044244 -0.005933
2006-08-17 09:48:50 51°20.136 2°37.151 24.4123 0.007991 0.044244 -0.005933
2006-08-17 09:49:51 51°20.136 2°37.148 24.5018 0.007991 0.044245 -0.005933
2006-08-17 09:50:51 51°20.136 2°37.143 24.5058 0.007887 0.043759 -0.005933
2006-08-17 09:51:51 51°20.134 2°37.139 24.4589 0.007991 0.044247 -0.005933
2006-08-17 09:52:49 51°20.133 2°37.136 24.5071 0.007991 0.044247 0.027777
2006-08-17 09:53:51 51°20.131 2°37.133 24.4102 0.007887 0.04376 -0.005933
2006-08-17 09:54:49 51°20.132 2°37.132 24.4412 0.007991 0.044247 0.027777
2006-08-17 09:55:50 51°20.133 2°37.131 24.4597 0.007991 0.044248 -0.039642
2006-08-17 09:56:51 51°20.135 2°37.133 24.4778 0.007991 0.044247 -0.005933
2006-08-17 09:57:50 51°20.136 2°37.136 24.4832 0.007991 0.044247 0.027777
2006-08-17 09:58:49 51°20.135 2°37.138 24.4975 0.007991 0.044246 0.027777
2006-08-17 09:59:51 51°20.135 2°37.139 24.5042 0.007991 0.044246 -0.005933
2006-08-17 10:00:50 51°20.134 2°37.14 24.5215 0.007991 0.044246 -0.005933
2006-08-17 10:01:51 51°20.134 2°37.14 24.5437 0.007991 0.044246 -0.005933
2006-08-17 10:02:50 51°20.135 2°37.139 24.5395 0.007991 0.044246 0.027777
2006-08-17 10:03:51 51°20.135 2°37.138 24.5622 0.007991 0.044246 -0.039642
2006-08-17 10:04:50 51°20.135 2°37.137 24.578 0.007991 0.044246 -0.005933
2006-08-17 10:05:51 51°20.134 2°37.136 24.675 0.007991 0.044246 -0.005933
2006-08-17 10:06:50 51°20.133 2°37.137 24.5755 0.007991 0.044245 -0.039642
2006-08-17 10:07:51 51°20.133 2°37.136 24.587 0.007991 0.044245 -0.005933
2006-08-17 10:08:51 51°20.133 2°37.135 24.6699 0.007991 0.044245 -0.005933
2006-08-17 10:09:51 51°20.133 2°37.135 24.6799 0.007991 0.044244 -0.005933
2006-08-17 10:10:50 51°20.134 2°37.134 24.6859 0.007991 0.044243 -0.005933
2006-08-17 10:11:50 51°20.135 2°37.135 24.6533 0.007991 0.044243 0.027777
2006-08-17 10:12:50 51°20.134 2°37.136 24.6122 0.007991 0.044242 -0.005933
2006-08-17 10:13:50 51°20.133 2°37.137 24.6194 0.007991 0.044241 -0.005933
2006-08-17 10:14:50 51°20.133 2°37.137 24.6434 0.007991 0.04424 0.027777
2006-08-17 10:15:51 51°20.133 2°37.137 24.6533 0.007991 0.044238 0.027777
2006-08-17 10:16:51 51°20.134 2°37.136 24.6555 0.007991 0.044238 -0.039642
2006-08-17 10:17:51 51°20.134 2°37.135 24.6802 0.007991 0.044236 -0.005933
2006-08-17 10:18:50 51°20.134 2°37.135 24.7485 0.007991 0.044236 0.027777
2006-08-17 10:19:51 51°20.134 2°37.134 24.691 0.007991 0.044235 -0.005933
2006-08-17 10:20:50 51°20.134 2°37.134 24.6725 0.007991 0.044233 0.027777
2006-08-17 10:21:51 51°20.132 2°37.134 24.7684 0.007991 0.044233 -0.005933
2006-08-17 10:22:51 51°20.127 2°37.135 24.6924 0.007991 0.044232 -0.005933
2006-08-17 10:23:50 51°20.121 2°37.137 24.7026 0.007991 0.044231 0.027777
2006-08-17 10:24:51 51°20.115 2°37.137 24.7055 0.007991 0.044231 -0.039642
2006-08-17 10:25:50 51°20.109 2°37.135 24.739 0.007991 0.044231 0.027777
2006-08-17 10:26:51 51°20.102 2°37.13 24.6655 0.007991 0.044231 -0.005933
2006-08-17 10:27:49 51°20.096 2°37.124 24.6902 0.007991 0.04423 -0.005933
2006-08-17 10:28:50 51°20.092 2°37.117 24.7179 0.007991 0.04423 -0.005933
2006-08-17 10:29:50 51°20.087 2°37.109 24.7311 0.007991 0.044228 -0.005933
2006-08-17 10:30:52 51°20.076 2°37.1 24.7352 0.007991 0.044227 -0.005933
2006-08-17 10:31:52 51°20.043 2°37.109 24.7598 0.007991 0.044225 -0.005933
2006-08-17 10:32:51 51°20.002 2°37.211 24.6387 0.007991 0.044223 0.027777
2006-08-17 10:33:52 51°19.924 2°37.389 24.7438 0.007991 0.044221 -0.005933
2006-08-17 10:34:51 51°19.829 2°37.604 24.7172 0.007991 0.04422 0.027777
2006-08-17 10:35:52 51°19.711 2°37.846 24.7498 0.007991 0.044219 -0.039642
2006-08-17 10:36:51 51°19.602 2°38.089 24.5167 0.007991 0.044219 -0.005933
2006-08-17 10:37:52 51°19.48 2°38.331 24.6848 0.007991 0.044221 -0.005933
2006-08-17 10:38:51 51°19.362 2°38.569 24.6914 0.007991 0.044223 -0.005933
2006-08-17 10:39:52 51°19.246 2°38.823 24.7168 0.007991 0.044226 -0.005933
2006-08-17 10:40:52 51°19.129 2°39.073 24.7216 0.007991 0.044229 -0.005933
2006-08-17 10:41:51 51°19.015 2°39.322 24.6929 0.007991 0.044233 0.027777
2006-08-17 10:42:52 51°18.903 2°39.581 24.6985 0.007991 0.044238 0.027777
2006-08-17 10:43:52 51°18.794 2°39.833 24.7171 0.007991 0.044242 -0.005933
2006-08-17 10:44:51 51°18.689 2°40.075 24.6693 0.007991 0.044247 -0.005933
2006-08-17 10:45:52 51°18.582 2°40.325 24.7387 0.007991 0.044251 -0.005933
2006-08-17 10:46:52 51°18.475 2°40.564 24.7608 0.007991 0.044256 -0.005933
2006-08-17 10:47:51 51°18.393 2°40.761 24.9031 0.007991 0.044262 0.027777
2006-08-17 10:48:51 51°18.38 2°40.855 24.9008 0.007991 0.044268 -0.005933
2006-08-17 10:49:52 51°18.379 2°40.885 24.9026 0.007991 0.044272 -0.005933
2006-08-17 10:50:52 51°18.374 2°40.892 24.9311 0.007991 0.044275 -0.005933
2006-08-17 10:51:52 51°18.37 2°40.891 24.9268 0.007991 0.044276 -0.005933
2006-08-17 10:52:52 51°18.367 2°40.884 24.9357 0.007991 0.044277 -0.005933
2006-08-17 10:53:51 51°18.366 2°40.875 24.9491 0.007991 0.044277 -0.005933
2006-08-17 10:54:51 51°18.365 2°40.864 24.9561 0.007991 0.044277 -0.005933
2006-08-17 10:55:51 51°18.365 2°40.85 24.9594 0.007991 0.044277 -0.005933
2006-08-17 10:56:51 51°18.365 2°40.833 24.9789 0.007991 0.044276 -0.039642
2006-08-17 10:57:51 51°18.366 2°40.816 24.9932 0.007991 0.044275 0.027777
2006-08-17 10:58:51 51°18.367 2°40.799 24.9946 0.007991 0.044274 0.027777
2006-08-17 10:59:51 51°18.362 2°40.787 24.9957 0.007991 0.044273 -0.005933
2006-08-17 11:00:51 51°18.341 2°40.769 25.0147 0.007991 0.044271 -0.005933
2006-08-17 11:01:51 51°18.322 2°40.728 25.0169 0.007887 0.043783 0.027777
2006-08-17 11:02:52 51°18.311 2°40.647 25.0342 0.007991 0.044269 -0.039642
2006-08-17 11:03:51 51°18.31 2°40.575 25.0317 0.007991 0.044268 -0.005933
2006-08-17 11:04:52 51°18.31 2°40.512 25.0916 0.007991 0.044267 -0.005933
2006-08-17 11:05:52 51°18.311 2°40.458 25.1011 0.007991 0.044265 -0.005933
2006-08-17 11:06:51 51°18.312 2°40.41 25.0973 0.007991 0.044265 -0.005933
2006-08-17 11:07:51 51°18.315 2°40.365 25.0901 0.007991 0.044264 -0.005933
2006-08-17 11:08:51 51°18.316 2°40.322 25.1064 0.007991 0.044263 -0.005933
2006-08-17 11:09:52 51°18.319 2°40.276 25.1195 0.007991 0.044262 -0.005933
2006-08-17 11:10:51 51°18.353 2°40.204 25.063 0.007991 0.044262 -0.005933
2006-08-17 11:11:51 51°18.406 2°40.248 25.1478 0.007991 0.044261 -0.005933
2006-08-17 11:12:51 51°18.433 2°40.369 25.1402 0.007991 0.044261 0.027777
2006-08-17 11:13:52 51°18.445 2°40.443 25.1679 0.007991 0.04426 -0.005933
2006-08-17 11:14:52 51°18.444 2°40.479 25.1427 0.007991 0.044259 -0.005933
2006-08-17 11:15:51 51°18.439 2°40.497 25.1713 0.007991 0.044258 -0.005933
2006-08-17 11:16:52 51°18.431 2°40.502 25.17 0.007991 0.044257 -0.005933
2006-08-17 11:17:51 51°18.424 2°40.498 25.2133 0.007991 0.044256 -0.005933
2006-08-17 11:18:51 51°18.42 2°40.489 25.2137 0.007991 0.044255 -0.039642
2006-08-17 11:19:51 51°18.415 2°40.475 25.1923 0.007991 0.044254 -0.005933
2006-08-17 11:20:51 51°18.412 2°40.46 25.2083 0.007991 0.044253 -0.005933
2006-08-17 11:21:52 51°18.409 2°40.443 25.2061 0.007991 0.044252 -0.005933
2006-08-17 11:22:51 51°18.407 2°40.424 25.2234 0.007991 0.044251 -0.005933
2006-08-17 11:23:52 51°18.405 2°40.403 25.2462 0.007991 0.04425 -0.005933
2006-08-17 11:24:52 51°18.403 2°40.381 25.2558 0.007991 0.044248 -0.005933
2006-08-17 11:25:51 51°18.402 2°40.357 25.2481 0.007991 0.044247 -0.005933
2006-08-17 11:26:51 51°18.402 2°40.327 25.2461 0.007991 0.044245 -0.005933
2006-08-17 11:27:51 51°18.393 2°40.315 25.2614 0.007991 0.044243 -0.039642
2006-08-17 11:28:51 51°18.409 2°40.379 25.1903 0.007991 0.044241 -0.005933
2006-08-17 11:29:51 51°18.43 2°40.57 25.1465 0.007991 0.044238 -0.005933
2006-08-17 11:30:51 51°18.414 2°40.845 25.1873 0.007991 0.044236 -0.005933
2006-08-17 11:31:51 51°18.387 2°41.126 25.2074 0.007991 0.044235 -0.005933
2006-08-17 11:32:51 51°18.377 2°41.41 25.1773 0.007991 0.044236 -0.005933
2006-08-17 11:33:51 51°18.365 2°41.697 25.2127 0.007991 0.044238 -0.005933
2006-08-17 11:34:51 51°18.358 2°41.985 25.2044 0.007991 0.044239 -0.039642
2006-08-17 11:35:51 51°18.346 2°42.267 25.2294 0.007991 0.044241 -0.005933
2006-08-17 11:36:51 51°18.331 2°42.439 25.3021 0.007991 0.044243 -0.005933
2006-08-17 11:37:51 51°18.342 2°42.605 25.2435 0.007991 0.044244 -0.005933
2006-08-17 11:38:51 51°18.354 2°42.823 25.2735 0.007991 0.044243 -0.005933
2006-08-17 11:39:51 51°18.387 2°43.04 25.2548 0.007991 0.044243 -0.005933
2006-08-17 11:40:51 51°18.4 2°43.173 25.3347 0.007991 0.044244 -0.005933
2006-08-17 11:41:51 51°18.45 2°43.249 25.296 0.007991 0.044244 -0.005933
2006-08-17 11:42:51 51°18.475 2°43.312 25.3268 0.007991 0.044244 -0.005933
2006-08-17 11:43:51 51°18.499 2°43.339 25.3282 0.007991 0.044244 -0.005933
2006-08-17 11:44:51 51°18.519 2°43.337 25.3741 0.007991 0.044243 -0.039642
2006-08-17 11:45:51 51°18.536 2°43.322 25.3852 0.007991 0.044243 -0.039642
2006-08-17 11:46:52 51°18.547 2°43.3 25.3921 0.007991 0.044241 -0.005933
2006-08-17 11:47:52 51°18.552 2°43.275 25.3984 0.007991 0.04424 -0.039642
2006-08-17 11:48:52 51°18.54 2°43.25 25.3954 0.007991 0.044238 -0.039642
2006-08-17 11:49:52 51°18.514 2°43.23 25.3538 0.007991 0.044237 -0.039642
2006-08-17 11:50:52 51°18.479 2°43.214 25.366 0.007991 0.044235 -0.005933
2006-08-17 11:51:52 51°18.441 2°43.2 25.3962 0.007991 0.044232 -0.005933
2006-08-17 11:52:52 51°18.411 2°43.176 25.4008 0.007991 0.04423 -0.005933
2006-08-17 11:53:52 51°18.428 2°43.169 25.4057 0.007991 0.044227 -0.005933
2006-08-17 11:54:52 51°18.459 2°43.222 25.4342 0.007991 0.044224 0.027777
2006-08-17 11:55:52 51°18.47 2°43.277 25.4179 0.007991 0.044221 -0.005933
2006-08-17 11:56:51 51°18.483 2°43.302 25.4081 0.007991 0.044219 -0.005933
2006-08-17 11:57:52 51°18.494 2°43.32 25.3987 0.007991 0.044217 -0.005933
2006-08-17 11:58:52 51°18.487 2°43.336 25.4424 0.007991 0.044215 -0.005933
2006-08-17 11:59:52 51°18.475 2°43.333 25.4838 0.007991 0.044212 0.027777
2006-08-17 12:00:52 51°18.467 2°43.314 25.4887 0.007991 0.044211 -0.005933
2006-08-17 12:01:52 51°18.46 2°43.288 25.5118 0.007991 0.044208 -0.005933
2006-08-17 12:02:52 51°18.456 2°43.257 25.5195 0.007991 0.044206 -0.005933
2006-08-17 12:03:52 51°18.443 2°43.232 25.5036 0.007991 0.044203 -0.005933
2006-08-17 12:04:52 51°18.42 2°43.238 25.4814 0.007991 0.044201 -0.039642
2006-08-17 12:05:52 51°18.437 2°43.27 25.4492 0.007991 0.044199 -0.005933
2006-08-17 12:06:52 51°18.475 2°43.301 25.4421 0.007991 0.044197 0.027777
2006-08-17 12:07:52 51°18.477 2°43.332 25.5054 0.007991 0.044195 -0.005933
2006-08-17 12:08:52 51°18.469 2°43.333 25.5775 0.007991 0.044192 -0.005933
2006-08-17 12:09:52 51°18.461 2°43.313 25.4912 0.007991 0.04419 -0.039642
2006-08-17 12:10:51 51°18.457 2°43.283 25.4929 0.007991 0.044187 -0.005933
2006-08-17 12:11:52 51°18.46 2°43.249 25.5643 0.007991 0.044185 -0.005933
2006-08-17 12:12:51 51°18.39 2°43.268 25.5692 0.007991 0.044182 -0.005933
2006-08-17 12:13:52 51°18.236 2°43.385 25.4994 0.007991 0.044179 -0.005933
2006-08-17 12:14:51 51°18.076 2°43.535 25.5541 0.007991 0.044177 -0.039642
2006-08-17 12:15:52 51°17.913 2°43.693 25.5606 0.007991 0.044175 -0.005933
2006-08-17 12:16:51 51°17.758 2°43.856 25.5662 0.007991 0.044173 -0.039642
2006-08-17 12:17:52 51°17.6 2°44.035 25.5868 0.007991 0.044171 -0.005933
2006-08-17 12:18:52 51°17.453 2°44.227 25.5837 0.007991 0.044168 -0.005933
2006-08-17 12:19:51 51°17.307 2°44.414 25.5838 0.007991 0.044165 -0.005933
2006-08-17 12:20:51 51°17.173 2°44.624 25.5576 0.007991 0.044163 -0.039642
2006-08-17 12:21:51 51°17.036 2°44.826 25.6083 0.007991 0.044161 -0.039642
2006-08-17 12:22:51 51°16.905 2°45.035 25.6225 0.007991 0.044158 -0.005933
2006-08-17 12:23:51 51°16.785 2°45.26 25.6397 0.007991 0.044156 -0.039642
2006-08-17 12:24:52 51°16.665 2°45.496 25.6352 0.007991 0.044152 -0.005933
2006-08-17 12:25:52 51°16.556 2°45.74 25.6286 0.007991 0.04415 -0.005933
2006-08-17 12:26:52 51°16.446 2°45.985 25.618 0.007991 0.044147 -0.005933
2006-08-17 12:27:52 51°16.336 2°46.229 25.6471 0.007991 0.044143 -0.005933
2006-08-17 12:28:51 51°16.244 2°46.482 25.6423 0.007991 0.044141 -0.005933
2006-08-17 12:29:52 51°16.19 2°46.767 25.66 0.007991 0.044138 0.027777
2006-08-17 12:30:52 51°16.152 2°47.047 25.6723 0.007991 0.044135 -0.039642
2006-08-17 12:31:52 51°16.103 2°47.319 25.6979 0.007991 0.044131 -0.005933
2006-08-17 12:32:51 51°16.047 2°47.584 25.7737 0.007991 0.044129 -0.005933
2006-08-17 12:33:51 51°15.988 2°47.853 25.7304 0.007991 0.044132 -0.005933
2006-08-17 12:34:52 51°15.931 2°48.128 25.7303 0.007991 0.044129 -0.005933
2006-08-17 12:35:51 51°15.905 2°48.404 25.7104 0.007991 0.044125 0.027777
2006-08-17 12:36:52 51°15.856 2°48.688 25.7048 0.007991 0.044123 -0.039642
2006-08-17 12:37:51 51°15.815 2°48.965 25.6811 0.007991 0.044122 -0.005933
2006-08-17 12:38:51 51°15.775 2°49.246 25.6903 0.007991 0.04412 -0.005933
2006-08-17 12:39:52 51°15.734 2°49.533 25.6812 0.007991 0.044119 0.027777
2006-08-17 12:40:51 51°15.696 2°49.812 25.6883 0.007991 0.044119 -0.005933
2006-08-17 12:41:51 51°15.664 2°50.093 25.6538 0.007991 0.044118 -0.039642
2006-08-17 12:42:51 51°15.612 2°50.369 25.671 0.007991 0.044117 -0.005933
2006-08-17 12:43:52 51°15.557 2°50.649 25.6652 0.007991 0.044117 -0.005933
2006-08-17 12:44:51 51°15.522 2°50.922 25.6442 0.007991 0.044117 -0.005933
2006-08-17 12:45:52 51°15.476 2°51.205 25.6371 0.007991 0.044117 -0.005933
2006-08-17 12:46:52 51°15.426 2°51.481 25.6349 0.007991 0.044118 -0.039642
2006-08-17 12:47:52 51°15.374 2°51.758 25.644 0.007991 0.044119 -0.005933
2006-08-17 12:48:51 51°15.325 2°52.03 25.637 0.007991 0.04412 -0.005933
2006-08-17 12:49:52 51°15.277 2°52.313 25.6326 0.007991 0.04412 -0.005933
2006-08-17 12:50:52 51°15.227 2°52.587 25.6224 0.007991 0.044121 -0.005933
2006-08-17 12:51:52 51°15.186 2°52.863 25.5978 0.007991 0.044121 -0.005933
2006-08-17 12:52:52 51°15.129 2°53.133 25.6078 0.007991 0.044122 -0.005933
2006-08-17 12:53:52 51°15.067 2°53.38 25.6095 0.007991 0.044122 -0.005933
2006-08-17 12:54:52 51°14.986 2°53.634 25.5762 0.007991 0.044122 -0.039642
2006-08-17 12:55:52 51°14.879 2°53.875 25.5726 0.007991 0.044123 -0.005933
2006-08-17 12:56:52 51°14.766 2°54.114 25.5785 0.007991 0.044123 -0.005933
2006-08-17 12:57:52 51°14.658 2°54.357 25.5877 0.007991 0.044124 -0.005933
2006-08-17 12:58:52 51°14.553 2°54.602 25.5394 0.007991 0.044123 -0.039642
2006-08-17 12:59:52 51°14.453 2°54.841 25.5587 0.007991 0.044123 -0.039642
2006-08-17 13:00:52 51°14.357 2°55.071 25.5548 0.007991 0.044122 -0.005933
2006-08-17 13:01:52 51°14.246 2°55.28 25.5111 0.007991 0.04412 -0.039642
2006-08-17 13:02:52 51°14.128 2°55.417 25.5389 0.007991 0.044119 -0.005933
2006-08-17 13:03:52 51°14.035 2°55.49 25.5656 0.007991 0.044117 -0.039642
2006-08-17 13:04:52 51°13.945 2°55.557 25.5587 0.007991 0.044115 -0.039642
2006-08-17 13:05:52 51°13.851 2°55.623 25.5146 0.007991 0.044114 -0.005933
2006-08-17 13:06:52 51°13.762 2°55.699 25.5416 0.007991 0.044111 -0.005933
2006-08-17 13:07:52 51°13.7 2°55.816 25.5169 0.007991 0.044109 -0.039642
2006-08-17 13:08:52 51°13.651 2°55.928 25.5241 0.007991 0.044106 -0.005933
2006-08-17 13:09:51 51°13.619 2°56.025 25.4919 0.007991 0.044102 -0.005933
2006-08-17 13:10:52 51°13.604 2°56.094 25.4603 0.007991 0.044099 -0.005933
2006-08-17 13:11:51 51°13.601 2°56.098 25.502 0.007991 0.044096 -0.005933